Погода в Череповеце

Погода в Череповеце : погода сейчас, прогноз погоды и архив. Всё, что Вы хотите узнать о погоде в Череповеце!

Хотите узнать прогноз погоды в Череповеце? Тогда Вам сюда: Погода в Череповеце

Поиск расширенной информации на нашем сайте:

Другие новости

Новости СМИ2

Главная страница сайта

Новости сайта

03.07.2017

Напоминаем, что на нашем специализированном сайте Метеоцентр.Азия вы можете получить высокодетализированные автоматические прогнозы погоды по пунктам России, СНГ и мира в авиационном формате (включающие направление и скорость ветра, видимость, явления погоды, количество и форму облачности, нижнюю и верхнюю границу облачности).

Рекомендуем: Flowers City доставка цветов в шляпных коробках.

Погода в Череповеце - сегодня

Время (UTC), дата Ветер
(°,м/с) 
Видим.   Явления Облачность Т
(°С)
Тd
(°С)
f(%) Тe
(°С)
Pmin
(гПа)
dP
(гПа)
Po
(мм)
O2
(г/м3)
Тmin Tmax R s Состояние
почвы
21 18.09.17 120 (ЮВ) 6000 м  гроза без осадков{ливн. осадки}  5/5 100 м кучево-дожд. 
[Cb cap]
+12.4 +11.8 96 +17  999.5  -1.4  739  283           
00 19.09.17 180 (Ю) 6000 м  дымка{гроза, ливн. осадки}  3/0 средняя 
[Ac trans]
+11.3 +10.1 92 +14  998.7  -0.8  739  284           
03 19.09.17 200 (Ю) 10 км  слаб. ливневой дождь  10/8 750 м кучево-дожд., средняя 
[Cb calv|Ac trans]
+11.5 +9.9 90 +12  997.6  -1.1  738  283  +10.9      мокрая 
06 19.09.17 180 (Ю) 10 км  слаб. ливневой дождь  10/8 540 м кучево-дожд., средняя 
[Cb calv|Ac trans]
+11.6 +10 90 +12  997.5  -0.1  738  283           
09 19.09.17 200 (Ю) 2600 м  ливневой дождь  10/10 180 м кучево-дожд. 
[Cb calv]
+11.6 +10.8 95 +14  998.7  1.2  739  283           
12 19.09.17 240 (ЮЗ) 5{10}  10 км  слаб. ливневой дождь  9/9 450 м кучево-дожд. 
[Cb calv]
+13.8 +11.8 88 +17  1000.8  2.2  740  282           
15 19.09.17 250 (З) 6{11}  10 км  слаб. ливневой дождь  10/10 400 м кучево-дожд. 
[Cb calv]
+13.1 +11.6 91 +16  1004.5  3.6  743  283    +14.2     
18 19.09.17 260 (З) 7-10{11}  10 км  слаб. ливневой дождь  10/10 210 м кучево-дожд. 
[Cb calv]
+10.9 +9.7 92 +10  1008.3  3.7  746  287           
21 19.09.17 260 (З) 5{10}  10 км  {ливн. осадки}  10/6 480 м кучево-дожд., средняя 
[Cb calv|Ac trans]
+9.6 +7.7 88 +8  1011.9  3.4  748  290           
00 20.09.17 250 (З) 10 км  {ливн. осадки}  10/6 420 м кучево-дожд., средняя 
[Cb calv|Ac trans]
+8.9 +7 88 +7  1014.4  2.4  750  292           
03 20.09.17 260 (З) 10 км    9/8 330 м средняя 
[St|Ac trans]
+7.6 +6.3 91 +6  1016.7  2.3  752  294  +7.1    0.0    мокрая 
06 20.09.17 250 (З) 10 км    9/8 330 м средняя 
[Sc|Ac trans]
+9.4 +7.5 88 +9  1019.2  2.5  754  292           
09 20.09.17 280 (З) 10 км    8/8 750 м 
[Sc]
+12.3 +7.4 72 +12  1020.6  1.5  755  290           
12 20.09.17 250 (З) 10 км    9/6 870 м средняя 
[Sc|Ac trans]
+14 +7.8 66 +14  1022.4  1.8  756  289           
15 20.09.17 270 (З) 10 км  в посл. час дождь  9/8 800 м средняя 
[Sc|Ac trans]
+12.4 +9.9 85 +14  1023.6  1.1  757  290    +14.7  0.0     
18 20.09.17 тихо ()   10 км  {дождь}  9/8 960 м средняя 
[Sc|Ac trans]
+10.8 +10 95 +12  1025.2  1.6  758  292           
21 20.09.17 060 (СВ) 10 км    9/8 870 м средняя 
[Sc|Ac trans]
+10.4 +9.4 94 +12  1026.7  1.4  759  293           
00 21.09.17 060 (СВ) 10 км    9/8 960 м средняя 
[Sc|Ac trans]
+9.6 +8.2 91 +10  1028.5  1.8  761  295           
03 21.09.17 050 (СВ) 10 км    10/10 1000 м 
[Sc]
+9.2 +8 92 +9  1030  1.5  762  296  +9.1        мокрая 
06 21.09.17 600 () 10 км    9/9 270 м 
[Sc]
+9.6 +7.7 88 +9  1031.2  1.2  763  296  +9         
09 21.09.17 040 (СВ) 10 км    6/4 600 м средняя, верхняя 
[Sc|Ac trans|Ci fib]
+11.8 +6.3 69 +12  1031.9  0.7  763  294           
12 21.09.17 040 (СВ) 10 км    4/3 600 м верхняя 
[Sc|Ci fib]
+10.8 +4.3 64 +10  1033.2  1.2  764  296           
15 21.09.17 050 (СВ) 10 км    8/5 600 м верхняя 
[Sc|Ci fib]
+8.9 +5.6 80 +8  1033.6  0.3  764  297    +12.8       
18 21.09.17 070 (В) 10 км    8/5 300 м верхняя 
[Sc|Ci fib]
+7.8 +6.3 90 +7  1034.9  1.3  765  299           
21 21.09.17 080 (В) 10 км  {дождь}  10/10 600 м 
[Sc]
+8.1 +6.1 87 +7  1036.3  1.4  766  299           
Время (UTC), дата Ветер
(°,м/с) 
Видим.   Явления Облачность Т
(°С)
Тd
(°С)
f(%) Тe
(°С)
Pmin
(гПа)
dP
(гПа)
Po
(мм)
O2
(г/м3)
Тmin Tmax R s Состояние
почвы

Для получения пояснительной информации подведите курсор к названию столбца.

ПОГОДА в Череповеце - архив

Всё, что Вы хотите узнать о погоде в Череповеце - удобно и подробно!

Выберите нужную дату (начиная с 1 января 2015* года) и нажмите кнопку "Найти".
Будут отображены архивные сводки погоды по пункту Череповец, начиная с указанной даты.


Отображать данные в формате CSV (для использования в таблицах Excel)


Внимание! Наш архив погоды предназначен исключительно для личного некоммерческого использования в познавательных целях. Если Вам необходимы официальные справки о состоянии погоды (для производственных, юридических, коммерческих и т.п. целей), обращайтесь в органы Росгидромета.

*Примечание: данная дата относится к архиву по метеостанциям СССР (Россия, СНГ, Балтия).
Архив по метеостанциям Зарубежной Европы и Азии (кроме Китая) хранится 10 дней, по другим регионам земного шара (Китай, Африка, Америка, Австралия, Океания) - 1 день.

Череповец - район местоположения метеостанции


Название, широта, долгота, высота метеостанции:
Череповец 59.2°ш. 38°д. 114 м над ур. моря [Российская Федерация]

Дополнительная информация

В oтличие oт бoльшинства пoгoдных сайтoв мы публикуем пoдрoбную метеoинфoрмацию в детальнoм прoфессиoнальнoм фoрмате.

Характеристики температуры и влажнoсти вoздуха измеряются на высoте 2 м в тени вдали oт зданий и деревьев.
Скoрoсть ветра измеряется на высoте 10 м (на урoвне рoста челoвека скoрoсть ветра ниже в 1.5-2 раза). Если метеoстанция нахoдится в гoрoде или в лесу, тo скoрoсть ветра занижена на 2-4 м/с пo сравнению с oткрытым местoм. Скoрoсть ветра над акватoриями крупных рек и oзёр, а также на вершинах хoлмoв на 2-5 м/с выше, чем в oбычных услoвиях.
Атмoсфернoе давление в разных тoчках местнoсти мoжет значительнo oтличаться oт давления на метеoстанции, в зависимoсти oт услoвий рельефа (при пoдъёме на 10 м давление пoнижается примернo на 1 мм рт.ст.).